www.pogodaiklimat.ru

Погода и климат >> Архив погоды >> Нигер >> Гая


ПОГОДА в Гае

  • Прогноз погоды в Гае
  • Монитор погоды в Гае

АРХИВ ПОГОДЫ в Гае

Время (UTC), дата Ветер
(напр.,м/с)
 
Видим.   Явления Облачность Т
(С)
Тd
(С)
f
(%)
Тe
(С)
Тes
(С)
Комфортность P
(гПа)
Po
(гПа)
Тmin
(С)
Tmax
(С)
R
(мм)
R24
(мм)
S
(см)
06 16.05 ЮЗ 4 15 км 9/0
[As op Cs]
+27.0 +23.4 81 +37 +37 очень
душно
1009.0 986.6 +26.0 0.5
09 16.05 З 4 15 км 9/0
[Cs]
+30.0 +24.4 72 +42 +49 опасность
перегрева
1011.1 988.6
12 16.05 З 4 15 км 9/0
[Cs]
+33.8 +22.7 52 +43 +55 опасность
перегрева
1009.4 987.1
15 16.05 С 6 10 км 9/0
[Ac As Ci sp]
+36.0 +22.6 46 +45 +47 опасность
перегрева
1007.4 985.0
18 16.05 штиль 0 15 км 9/0
[Ac lent Ci sp]
+33.0 +23.0 56 +43 +43 опасность
перегрева
1007.4 985.0 +36.6
21 16.05 З 4 10 км 9/0
[Ac lent Ci sp]
+31.2 +23.8 65 +43 +43 опасность
перегрева
1009.6 987.2
03 17.05 З 6 15 км зарница 9/1 1200 м
[Cb cap Ac lent Cs]
+29.0 +20.7 61 +36 +36 очень
душно
1009.3 987.0
06 17.05 Ю 6 15 км 9/1 1200 м
[Cb cap Ac As Ci sp]
+26.2 +21.5 75 +33 +33 очень
душно
1010.7 988.2 +25.6
09 17.05 штиль 0 15 км 9/0
[As op Cs]
+27.5 +23.4 78 +37 +47 очень
душно
1011.2 988.7
12 17.05 ЮЗ 2 10 км 9/0
[Cs]
+33.0 +22.2 53 +42 +60 опасность
перегрева
1009.6 987.3
15 17.05 штиль 0 15 км 9/0
[Cs]
+35.4 +21.5 45 +43 +55 опасность
перегрева
1006.3 984.1
18 17.05 штиль 0 15 км 9/0
[Ac As Ci sp]
+35.0 +22.9 50 +45 +45 опасность
перегрева
1006.0 983.7 +36.5
21 17.05 штиль 0 10 км 9/0
[Ac trans Ci sp]
+33.0 +23.9 59 +45 +45 опасность
перегрева
1006.0 985.3
03 18.05 штиль 0 10 км 9/0
[Ac trans Ci sp]
+28.5 +23.5 74 +39 +39 очень
душно
1005.4 983.2
06 18.05 штиль 0 15 км 9/0
[Ac lent Ci sp]
+28.0 +23.7 77 +38 +39 очень
душно
1006.6 984.3 +27.5
09 18.05 З 4 15 км 9/0
[Ac lent Ci sp]
+33.4 +24.5 60 +46 +51 опасность
перегрева
1007.5 985.4
12 18.05 штиль 0 15 км 6/0
[Ac lent Ci sp]
+36.4 +24.5 51 +49 +73 опасность
перегрева
1006.8 984.7
15 18.05 З 4 15 км 8/1 1200 м
[Cu hum Ac lent Ci sp]
+38.8 +22.4 39 +47 +51 опасность
перегрева
1004.9 982.8
18 18.05 штиль 0 10 км 9/1 1000 м
[Sc Ac As Ci sp]
+35.4 +23.0 49 +45 +45 опасность
перегрева
1004.9 982.7 +39.2
21 18.05 штиль 0 10 км 9/0
[Ac lent Ci sp]
+31.6 +22.4 58 +41 +41 опасность
перегрева
1007.3 985.1
03 19.05 штиль 0 15 км 9/0
[Ac lent Ci sp]
+30.4 +21.3 58 +38 +38 очень
душно
1006.0 984.0
06 19.05 штиль 0 15 км 9/0
[Ac As Ci sp]
+30.2 +24.3 71 +42 +43 опасность
перегрева
1008.0 984.8 +29.6
09 19.05 Ю 8 15 км 9/0
[Ac lent Cs]
+33.0 +23.0 56 +43 +45 опасность
перегрева
1008.8 986.6
12 19.05 Ю 8 15 км 9/1 1200 м
[Cu hum Cs]
+37.0 +23.7 47 +48 +51 опасность
перегрева
1008.0 985.9
15 19.05 Ю 4 15 км 9/1 1200 м
[Cu hum Cs]
+38.0 +24.1 45 +49 +54 опасность
перегрева
1005.2 983.1
18 19.05 Ю 4 15 км 9/1 1200 м
[Cb cap Cs]
+36.0 +23.0 47 +46 +46 опасность
перегрева
1004.3 982.8 +38.5
21 19.05 штиль 0 10 км 9/0
[Cs]
+34.0 +24.2 57 +46 +46 опасность
перегрева
1006.5 984.4
03 20.05 Ю 8 10 км 9/0
[Cs]
+31.0 +23.9 66 +43 +43 опасность
перегрева
1006.5 984.5
06 20.05 Ю 8 15 км 9/0
[Cs]
+30.0 +23.6 69 +41 +41 опасность
перегрева
1008.3 985.1 +29.5
09 20.05 С 10 15 км 9/0
[Cs]
+33.6 +23.0 54 +44 +44 опасность
перегрева
1009.0 986.8
12 20.05 З 8 15 км 9/3 1200 м
[Cu med, cong Ci sp]
+37.0 +22.8 44 +46 +49 опасность
перегрева
1007.9 985.8
15 20.05 З 8 15 км гроза без осадков 9/3 1200 м
[Cb cap Ci sp]
+38.2 +22.3 40 +47 +48 опасность
перегрева
1005.0 983.0
18 20.05 СВ 10 15 км в посл. час гроза 9/1 1200 м
[Cb cap Ac As Ci sp]
+29.6 +21.4 61 +37 +37 очень
душно
1005.1 982.7 +39.5
21 20.05 Ю 6 15 км зарница 9/1 1200 м
[Cb cap Ac As Ci sp]
+30.0 +21.8 62 +39 +39 очень
душно
1007.9 985.6
03 21.05 В 4 15 км гроза, ливневой дождь 9/1 1200 м
[Cb cap Ac As Ci sp]
+23.2 +21.7 91 +31 +31 очень
душно
1011.6 989.2
06 21.05 штиль 0 15 км {гроза, дождь} 9/0
[Ac As Ci sp]
+24.6 +21.9 85 +32 +32 очень
душно
1010.4 987.6 +21.4 27
09 21.05 Ю 8 15 км 9/4 900 м
[Sc Ac As Ci sp]
+26.5 +22.9 81 +35 +36 очень
душно
1013.1 990.7
12 21.05 Ю 4 15 км 9/0
[Ac trans Cs]
+31.0 +23.2 63 +41 +53 опасность
перегрева
1010.7 988.1
15 21.05 З 6 15 км 9/0
[Ac As Cs]
+33.0 +23.0 56 +43 +46 опасность
перегрева
1007.0 984.4
18 21.05 штиль 0 15 км 9/0
[Ac lent Cs]
+32.0 +23.5 61 +43 +43 опасность
перегрева
1006.0 983.4 +33.5
21 21.05 Ю 4 15 км 9/0
[Ac As Cs]
+29.0 +24.8 78 +41 +41 опасность
перегрева
1008.1 985.5
03 22.05 штиль 0 10 км 9/0
[Cs]
+27.5 +14.7 46 +30 +30 жарко 1008.4 986.0
06 22.05 штиль 0 15 км 9/0
[Cs]
+26.5 +24.4 88 +37 +37 очень
душно
1009.1 986.7 +25.7
09 22.05 штиль 0 10 км 9/0
[Cs]
+30.0 +24.4 72 +42 +56 опасность
перегрева
1010.9 988.4
12 22.05 штиль 0 15 км 9/0
[Cs]
+34.4 +23.7 54 +46 +70 опасность
перегрева
1009.3 987.1
15 22.05 ЮЗ 4 10 км 9/0
[Cs]
+36.0 +23.3 48 +46 +52 опасность
перегрева
1007.9 985.6
18 22.05 штиль 0 15 км 9/0
[Cs]
+34.0 +23.5 54 +45 +45 опасность
перегрева
1007.0 984.8 +36.6
21 22.05 штиль 0 15 км 9/0
[Cs]
+31.2 +23.8 65 +43 +43 опасность
перегрева
1008.4 986.0
03 23.05 штиль 0 15 км 9/0
[Cs]
+28.6 +24.4 78 +40 +40 очень
душно
1008.2 986.0

 

Местоположение метеостанции Гая (Нигер): широта 11.88 долгота 3.45 высота над уровнем моря 203 м.

В архиве по умолчанию представлена погода в Гае за последнюю неделю. Архивные данные за месяц целиком и за предыдущие месяцы, начиная с января 2011 года, Вы можете получить, выбрав интересующий диапазон дат из раскрывающегося списка и нажав кнопку "Ввод!".


*Определитесь, кто Вы:
робот инопланетянин человек

Внимание! Время в таблицах - всемирное. Для получения местного времени необходимо прибавить поправку, которая равна 1 ч.

Смотрите также архив погоды в соседних городах и на ближайших метеорологических станциях:

Погода в Канди (Бенин) (101 км)
Погода в Досо (Нигер) (129 км)
Погода в Йелве (Нигерия) (180 км)
Погода в Ниамее (Нигер) (226 км)
Погода в Натитингу (Бенин) (285 км)
Погода в Вирнин-Конни (Нигер) (289 км)
Погода в Параку (Бенин) (296 км)
Погода в Фада-Нгурме (Буркина-Фасо) (336 км)
Погода в Тиллабери (Нигер) (337 км)
Погода в Ньамтугу (Того) (348 км)

Пояснения к столбцам:

Ветер - указаны скорость ветра в м/с - средняя за 10 мин, порывы в срок и между сроками (в фигурных скобках) и направление, откуда дует ветер: С - северный, СВ - северо-восточный, В - восточный, ЮВ - юго-восточный, Ю - южный, ЮЗ - юго-западный, З - западный, СЗ - северо-западный.
Видимость - горизонтальная дальность видимости в метрах или километрах. При видимости от 1 до 10 км при отсутствии осадков обычно наблюдается дымка, при ухудшении видимости до 1 км и менее - туман. В сухую погоду видимость может ухудшаться дымом, пылью или мглою.
Явления - указаны атмосферные явления, наблюдавшиеся в срок или в последний час перед сроком; фигурными скобками обозначены явления, наблюдавшиеся между сроками (за 1-3 часа до срока); квадратными скобками обозначены град или гололедные отложения с указанием их диаметра в мм.
Облачность - указаны через наклонную черту общая и нижняя облачность в баллах и высота нижней границы облаков в метрах; квадратными скобками обозначены формы облаков: Ci - перистые, Cs - перисто-слоистые, Cc - перисто-кучевые, Ac - высококучевые, As - высокослоистые, Sc - слоисто-кучевые, Ns - слоисто-дождевые, Cu - кучевые, Cb - кучево-дождевые. Подробнее классификацию облаков см. в Атласе облаков (PDF).
T - Температура воздуха - температура, измеренная на высоте 2 м над землей.
Td - Температура точки росы - температура, при понижении до которой содержащийся в воздухе водяной пар достигнет насыщения.
f - Относительная влажность воздуха - влажноcть воздуха, измеренная на высоте 2 м над землей.
Te - Эффективная температура - температура, которую ощущает одетый по сезону человек в тени. Характеристика душности погоды. При расчете учитывается влияние влажности воздуха и скорости ветра на теплоощущения человека.
Tes - Эффективная температура на солнце - температура, которую ощущает человек, с поправкой на солнечный нагрев. Характеристика знойности погоды. Зависит от высоты солнца над горизонтом, облачности и скорости ветра. Ночью, в пасмурную погоду, а также при ветре 12 м/с и более поправка равна нулю.
P - Атмосферное давление - приведенное к уровню моря атмосферное давление.
Po - Атмосферное давление - измеренное на уровне метеостанции атмосферное давление.
Tmin - Минимальная температура - минимум температуры воздуха на высоте 2 м над землей.
Tmax - Максимальная температура - максимум температуры воздуха на высоте 2 м над землей.
R - Количество осадков - Количество выпавших осадков за период времени, мм. При наведении курсора мыши на число - период времени, за который выпало указанное количество осадков.
R24 - Количество осадков - Количество выпавших осадков за 24 часа, мм.
S - Снежный покров - Высота снежного покрова, см. При наведении курсора мыши на число - состояние снежного покрова и степень покрытия местности в баллах.